Location: Pedimozza
(42.0500°N, 9.3500°E)
Time: 18:07:22
(UTC+00:00)

Cosmos 158 Rocket - Pass Details

Date: 19 August 2019
Orbit: 698 x 794 km, 74.0° (Epoch: 21 September)

Event Time Altitude Azimuth Distance (km) Brightness Sun altitude
Rises 20:50:25 0° 341° (NNW) 3,244 8.3 -24.6°
Reaches altitude 10° 20:52:47 10° 343° (NNW) 2,326 7.3 -24.9°
Maximum altitude 20:58:06 76° 69° (ENE) 813 3.9 -25.6°
Enters shadow 20:58:19 74° 95° (E) 819 3.9 -25.6°
